Regional Weather Roundup
Issued by NWS Albany, NY

Home | Current Version | Previous Version | Text Only | Print | Product List | Glossary On
Versions: 1 2 3 4 5 6 7 8 9 10 11 12 13 14 15 16 17 18 19 20 21 22 23 24 25 26 27 28 29 30 31 32 33 34 35 36 37 38 39 40 41 42 43 44 45 46 47 48 49 50
000
ASUS41 KALY 280610
RWRALY

NEW YORK STATE HOURLY WEATHER ROUNDUP
NATIONAL WEATHER SERVICE ALBANY NY
100 AM EST SAT FEB 28 2015

NOTE: "FAIR" INDICATES FEW OR NO CLOUDS BELOW 12,000 FEET WITH NO
SIGNIFICANT WEATHER AND/OR NO OBSTRUCTIONS TO VISIBILITY.

NYZ032-033-038>043-046>054-057>066-NYZ062>081-280700-
EAST


CITY           SKY/WX    TMP DP  RH WIND       PRES   REMARKS
ALBANY         PTCLDY     4  -5  66 CALM      30.65R
GLENS FALLS    CLEAR     -3 -11  68 CALM      30.62R
POUGHKEEPSIE   CLEAR      4  -3  73 CALM      30.65R
MONTGOMERY     CLEAR     13  -6  42 W8        30.62R WCI   2
WHITE PLAINS   CLEAR     15  -4  42 NW7       30.60R WCI   5
ISLIP          CLEAR     19   5  54 N10       30.61R WCI   7
NEW YORK CITY  CLEAR     20  -2  38 NW18      30.64R WCI   5
CENTRAL PARK   CLEAR     19  -3  38 MISG      30.66R
$$

NYZ005>009-017-018-044>046-055-056-280700-
CENTRAL


CITY           SKY/WX    TMP DP  RH WIND       PRES   REMARKS
FULTON         CLOUDY     6  -3  66 SW8       30.66R WCI  -7
SYRACUSE       MOCLDY     9  -1  62 W13       30.64R WCI  -6
ROME           CLOUDY     7  -1  70 W9        30.67R WCI  -7
ELMIRA         CLEAR     -4 -12  68 CALM      30.66R
BINGHAMTON     CLEAR      2  -5  72 W7        30.55R WCI -11
MONTICELLO     CLEAR      5  -8  56 NW7       30.56R WCI  -7
$$

NYZ026>034-041>043-280700-
NORTH


CITY           SKY/WX    TMP DP  RH WIND       PRES   REMARKS
WATERTOWN      CLOUDY    11   6  81 SW7       30.64R WCI   0
FORT DRUM      NOT AVBL
MASSENA        CLEAR      6  -5  60 SW12      30.61R WCI  -9
SARANAC LAKE   CLOUDY    -6 -10  83 S3        30.45R FOG
PLATTSBURGH    CLEAR     11  -1  58 CALM      30.59R
$$

NYZ001>004-010>016-019>021-280700-
WEST


CITY           SKY/WX    TMP DP  RH WIND       PRES   REMARKS
NIAGARA FALLS  CLEAR      3  -2  79 SW12      30.66R WCI -13
BUFFALO        PTCLDY     4  -2  76 SW9       30.65R WCI -10
DUNKIRK        PTCLDY     3  -3  76 S9        30.68R WCI -12
JAMESTOWN      PTCLDY     0  -2  92 SW3       30.55S
WELLSVILLE     CLEAR      1  -9  62 W5        30.53R WCI  -9
ROCHESTER      CLEAR      1  -5  75 SW10      30.67R WCI -15
PENN YAN       CLEAR      2  -7  66 SW9       30.63R WCI -13
$$

             KEY
       WCI = WIND CHILL INDEX
       VSB = VISIBILITY
       HX  = HEAT INDEX
$$


USA.gov is the U.S. government's official web portal to all federal, state and local government web resources and services.